Change the Weather History Date:

Thursday, September 18, 2014

  Actual Average Record
Temperature  
Mean Temperature 77 °F 73 °F  
Max Temperature 85 °F 84 °F 92 °F (2006)
Min Temperature 69 °F 63 °F 55 °F (2010)
Degree Days  
Heating Degree Days 0 0  
Month to date heating degree days 0 0  
Since 1 July heating degree days 0 0  
Cooling Degree Days 12 8  
Month to date cooling degree days 301 170  
Year to date cooling degree days 1663 1033  
Growing Degree Days 26 (Base 50)    
Moisture  
Dew Point 62 °F    
Average Humidity 65    
Maximum Humidity 78    
Minimum Humidity 51    
Precipitation  
Precipitation 0.00 in 0.01 in 0.72 in (1965)
Month to date precipitation 0.02 0.09  
Year to date precipitation 3.58 9.83  
Since 1 July precipitation 0.12 0.18  
Snow  
Snow 0.00 in - - ()
Month to date snowfall 0.0  
Year to date snowfall 0.0  
Since 1 July snowfall 0.0  
Snow Depth 0.00 in    
Sea Level Pressure  
Sea Level Pressure 29.83 in    
Wind  
Wind Speed 5 mph (SW)    
Max Wind Speed 13 mph    
Max Gust Speed 21 mph    
Visibility 10 miles    
Events      
T = Trace of Precipitation, MM = Missing Value Source: NWS Daily Summary

Daily Weather History Graph

Daily Weather History Graph

Search for Another Location

Airport or City:

Trip Planner

Search our weather history database for the weather conditions in past years. The results will help you decide how hot, cold, wet, or windy it might be!

Date:

Astronomy

Sep. 18, 2014 Rise Set
Actual Time 6:37 AM PDT 6:54 PM PDT
Civil Twilight 6:12 AM PDT 7:19 PM PDT
Nautical Twilight 5:43 AM PDT 7:48 PM PDT
Astronomical Twilight 5:13 AM PDT 8:17 PM PDT
Moon 1:44 AM PDT (9/18) 3:38 PM PDT (9/18)
Length of Visible Light 13h 06m
Length of Day
12h 16m
Waning Crescent, 25% of the Moon is Illuminated
Sep 18
Waning Crescent
Sep 23
New
Oct 1
First Quarter
Oct 8
Full
Oct 15
Last Quarter

Hourly Weather History & Observations

Time (PDT) Temp. Heat Index Dew Point Humidity Pressure Visibility Wind Dir Wind Speed Gust Speed Precip Events Conditions
12:53 AM 73.0 °F - 62.1 °F 68% 29.79 in 10.0 mi South 3.5 mph - N/A   Clear
2:53 AM 71.1 °F - 62.1 °F 73% 29.79 in 10.0 mi South 3.5 mph - N/A   Clear
3:53 AM 70.0 °F - 61.0 °F 73% 29.79 in 10.0 mi SSE 3.5 mph - N/A   Clear
4:53 AM 69.1 °F - 61.0 °F 75% 29.80 in 10.0 mi Calm Calm - N/A   Clear
5:53 AM 69.1 °F - 62.1 °F 78% 29.81 in 10.0 mi ESE 3.5 mph - N/A   Clear
6:53 AM 69.1 °F - 61.0 °F 75% 29.83 in 10.0 mi Calm Calm - N/A   Clear
7:53 AM 70.0 °F - 61.0 °F 73% 29.85 in 10.0 mi Calm Calm - N/A   Clear
8:53 AM 73.0 °F - 60.1 °F 64% 29.87 in 10.0 mi SSW 4.6 mph - N/A   Clear
10:53 AM 80.1 °F 80.9 °F 60.1 °F 50% 29.88 in 10.0 mi WNW 6.9 mph - N/A   Clear
11:53 AM 80.1 °F 81.5 °F 63.0 °F 56% 29.87 in 10.0 mi Variable 5.8 mph - N/A   Partly Cloudy
12:53 PM 81.0 °F 82.2 °F 63.0 °F 54% 29.85 in 10.0 mi WSW 5.8 mph - N/A   Partly Cloudy
1:53 PM 82.0 °F 83.4 °F 64.0 °F 54% 29.83 in 10.0 mi SSW 9.2 mph - N/A   Clear
2:53 PM 82.9 °F 84.4 °F 64.0 °F 53% 29.81 in 10.0 mi South 10.4 mph - N/A   Clear
3:53 PM 84.0 °F 85.8 °F 64.9 °F 53% 29.79 in 10.0 mi SW 5.8 mph - N/A   Clear
4:53 PM 82.9 °F 83.7 °F 62.1 °F 49% 29.79 in 10.0 mi Variable 6.9 mph - N/A   Clear
5:53 PM 79.0 °F - 63.0 °F 58% 29.79 in 10.0 mi West 8.1 mph - N/A   Clear
6:53 PM 75.9 °F - 64.0 °F 67% 29.81 in 10.0 mi West 8.1 mph - N/A   Clear
7:53 PM 73.0 °F - 64.0 °F 73% 29.82 in 10.0 mi WNW 5.8 mph - N/A   Clear
8:53 PM 72.0 °F - 61.0 °F 68% 29.84 in 10.0 mi WNW 5.8 mph - N/A   Clear
9:53 PM 71.1 °F - 62.1 °F 73% 29.85 in 10.0 mi Variable 4.6 mph - N/A   Clear
10:53 PM 71.1 °F - 62.1 °F 73% 29.85 in 10.0 mi SSW 4.6 mph - N/A   Clear
11:53 PM 71.1 °F - 61.0 °F 70% 29.85 in 10.0 mi Variable 3.5 mph - N/A   Clear